DW6399 Weather Reports


time (UTC)temp
F
wind
direction
speed
knots
gust
knots
rain 1hr
in
rain 24hr
in
rain mn
in
humidity
%
barometer
mb
20260904040025 48 197 0.9 2.6 0.00 0.11 0.05 95 997.2
20260904035425 48 197 0.9 1.7 0.00 0.11 0.05 94 997.2
20260904034504 48 197 0.0 1.7 0.00 0.11 0.05 94 997.2
20260904033604 48 197 0.9 3.5 0.00 0.11 0.05 94 997.1
20260904032725 48 197 0.0 2.6 0.00 0.11 0.05 94 997.3
20260904031804 48 197 0.0 0.9 0.00 0.11 0.05 94 997.3
20260904030904 48 197 0.0 1.7 0.00 0.11 0.05 94 997.4
20260904030004 48 197 0.9 2.6 0.00 0.11 0.05 94 997.4
20260904025425 48 197 0.9 2.6 0.00 0.11 0.05 94 997.4
20260904024504 48 197 0.9 2.6 0.00 0.11 0.05 94 997.4
20260904023604 48 197 0.0 1.7 0.00 0.11 0.05 94 997.5
20260904022725 48 197 0.9 3.5 0.00 0.11 0.05 94 997.5
20260904021804 48 197 0.9 2.6 0.00 0.11 0.05 94 997.5
20260904020904 48 205 0.9 3.5 0.00 0.11 0.05 94 997.6
20260904020025 48 179 0.9 3.5 0.01 0.11 0.05 94 997.6
20260904015404 48 197 1.7 3.5 0.01 0.11 0.05 94 997.6
20260904014504 49 217 0.9 4.3 0.01 0.11 0.05 94 997.6
20260904013625 49 344 0.9 1.7 0.01 0.11 0.05 94 997.7
20260904012704 49 344 0.9 2.6 0.01 0.11 0.05 94 997.7
20260904011804 49 344 0.9 2.6 0.01 0.11 0.05 94 997.8
20260904010904 49 344 0.0 0.9 0.02 0.11 0.05 94 997.9
20260904010004 49 344 0.0 1.7 0.02 0.10 0.04 94 997.9
20260904005404 49 344 0.0 0.9 0.02 0.10 0.04 94 997.9
20260904004504 49 0 0.0 0.0 0.03 0.10 0.04 94 998.0
20260904003604 49 0 0.0 0.0 0.03 0.10 0.04 94 998.1
20260904002704 49 0 0.0 0.0 0.04 0.10 0.04 94 998.2
20260904001804 49 0 0.0 0.0 0.04 0.10 0.04 94 998.2
20260904000925 49 344 0.0 1.7 0.03 0.09 0.03 94 998.2
20260904000025 49 344 0.0 1.7 0.02 0.08 0.02 94 998.3
20260903235404 49 0 0.0 0.0 0.02 0.08 0.02 94 998.3
20260903234525 49 344 0.0 0.9 0.01 0.07 0.01 94 998.3
20260903233604 49 0 0.0 0.0 0.01 0.07 0.01 94 998.3
20260903232704 49 0 0.0 0.0 0.00 0.06 0.00 94 998.3
20260903231804 49 344 0.0 0.9 0.00 0.06 0.00 94 998.3
20260903230904 49 344 0.0 1.7 0.00 0.06 0.00 94 998.4
20260903230025 49 0 0.0 0.0 0.00 0.06 0.00 94 998.4
20260903225404 49 344 0.0 1.7 0.00 0.06 0.00 94 998.5
20260903224504 49 344 0.0 2.6 0.00 0.06 0.00 94 998.4
20260903223604 49 296 0.0 3.5 0.00 0.06 0.00 94 998.4
20260903222704 49 158 0.0 1.7 0.00 0.06 0.00 94 998.5
20260903221804 49 158 0.0 2.6 0.00 0.06 0.00 94 998.5
20260903220904 49 180 0.0 4.3 0.00 0.06 0.00 94 998.5
20260903220004 49 213 0.9 5.2 0.00 0.06 0.00 94 998.5
20260903215404 49 259 0.0 2.6 0.00 0.06 0.00 94 998.5
20260903214525 49 259 0.0 1.7 0.00 0.06 0.00 94 998.4
20260903213625 50 259 0.0 1.7 0.00 0.06 0.00 94 998.4
20260903212704 50 214 0.9 4.3 0.00 0.06 0.00 94 998.5
20260903211804 50 155 0.9 2.6 0.00 0.06 0.00 94 998.6
20260903210904 50 155 0.0 0.9 0.00 0.06 0.00 94 998.6
20260903210006 50 155 0.0 1.7 0.00 0.06 0.00 94 998.7
20260903205425 50 155 0.9 2.6 0.01 0.06 0.06 94 998.7
20260903204504 50 155 0.0 0.9 0.01 0.06 0.06 93 998.7
20260903203625 50 155 0.0 0.9 0.01 0.06 0.06 93 998.7
20260903202704 50 155 0.0 1.7 0.01 0.06 0.06 93 998.7
20260903201825 50 155 0.9 2.6 0.01 0.06 0.06 93 998.7
20260903200925 51 0 0.0 0.0 0.01 0.06 0.06 93 998.9
20260903200004 51 0 0.0 0.0 0.01 0.06 0.06 93 999.0
20260903195404 51 0 0.0 0.0 0.00 0.05 0.05 92 999.1
20260903194504 51 155 0.0 0.9 0.01 0.05 0.05 92 999.2
20260903193604 51 155 0.0 1.7 0.01 0.05 0.05 92 999.1
20260903192704 51 155 0.0 1.7 0.01 0.05 0.05 92 999.1
20260903191804 51 155 2.6 7.0 0.01 0.05 0.05 92 999.3
20260903190904 52 167 1.7 5.2 0.01 0.05 0.05 91 999.5
20260903190006 52 321 0.9 2.6 0.02 0.05 0.05 91 999.3
20260903185404 52 324 1.7 4.3 0.03 0.05 0.05 91 999.3
20260903184504 52 324 3.5 4.3 0.03 0.04 0.04 91 999.3
20260903183604 52 320 4.3 7.0 0.04 0.04 0.04 91 999.3
20260903182704 52 304 1.7 4.3 0.04 0.04 0.04 90 999.4
20260903181804 52 302 0.9 2.6 0.04 0.04 0.04 90 999.4
20260903180904 52 303 2.6 6.1 0.04 0.04 0.04 89 999.5
20260903180004 53 295 1.7 5.2 0.03 0.03 0.03 88 999.5
20260903175404 53 291 2.6 5.2 0.02 0.02 0.03 86 999.5
20260903174504 54 272 1.7 5.2 0.01 0.01 0.01 85 999.5
20260903173604 55 286 1.7 5.2 0.00 0.00 0.00 83 999.5
20260903172725 56 247 2.6 10.4 0.00 0.00 0.00 81 999.4
20260903171804 56 260 1.7 6.1 0.00 0.00 0.00 82 999.3
20260903170904 56 230 1.7 6.1 0.00 0.00 0.00 83 999.2
20260903170004 56 256 4.3 8.7 0.00 0.00 0.00 84 999.1
20260903165404 55 276 4.3 8.7 0.00 0.00 0.00 85 998.9
20260903164504 54 156 0.0 1.7 0.00 0.00 0.00 89 998.5
20260903163604 54 0 0.0 0.0 0.00 0.00 0.00 89 998.5
20260903162725 55 0 0.0 0.0 0.00 0.00 0.00 88 998.5
20260903161804 55 156 0.0 0.9 0.00 0.00 0.00 87 998.5
20260903160904 56 156 0.0 0.9 0.00 0.00 0.00 86 998.5
20260903160004 58 156 0.0 0.9 0.00 0.00 0.00 84 998.5
20260903155404 59 156 0.0 0.9 0.00 0.00 0.00 81 998.6
20260903154504 60 156 0.9 1.7 0.00 0.00 0.00 79 998.6
20260903153604 61 157 0.9 2.6 0.00 0.00 0.00 76 998.6
20260903152704 61 157 1.7 4.3 0.00 0.00 0.00 75 998.7
20260903151804 61 157 1.7 4.3 0.00 0.00 0.00 76 998.8
20260903150904 62 161 2.6 5.2 0.00 0.00 0.00 74 998.8
20260903150004 62 162 1.7 4.3 0.00 0.00 0.00 72 998.8
20260903145404 62 156 2.6 7.8 0.00 0.00 0.00 73 998.7
20260903144504 62 171 2.6 6.1 0.00 0.00 0.00 72 998.7
20260903143604 63 199 1.7 3.5 0.00 0.00 0.00 71 998.7
20260903142704 63 155 2.6 7.0 0.00 0.00 0.00 71 998.8
20260903141804 63 147 3.5 7.0 0.00 0.00 0.00 70 998.8
20260903140904 63 161 2.6 6.1 0.00 0.00 0.00 70 998.9
20260903140004 62 167 0.9 4.3 0.00 0.00 0.00 69 998.9
20260903135403 63 168 1.7 5.2 0.00 0.00 0.00 70 998.9
20260903134504 63 167 3.5 5.2 0.00 0.00 0.00 68 998.9
20260903133625 64 170 3.5 7.8 0.00 0.00 0.00 70 999.0
20260903132725 64 157 4.3 9.6 0.00 0.00 0.00 71 999.1
20260903131825 64 153 2.6 6.1 0.00 0.00 0.00 71 999.1
20260903130925 64 185 2.6 6.1 0.00 0.00 0.00 70 999.1
20260903130004 64 168 3.5 7.0 0.00 0.00 0.00 73 999.2
20260903125425 63 155 4.3 8.7 0.00 0.00 0.00 75 999.3
20260903124504 63 168 2.6 6.1 0.00 0.00 0.00 73 999.3
20260903123625 64 176 2.6 9.6 0.00 0.00 0.00 74 999.4
20260903122704 64 160 4.3 9.6 0.00 0.00 0.00 74 999.5
20260903121825 64 140 5.2 9.6 0.00 0.00 0.00 75 999.4
20260903120904 63 145 5.2 9.6 0.00 0.00 0.00 76 999.6
20260903120004 63 169 3.5 7.8 0.00 0.00 0.00 77 999.7
20260903115404 62 161 3.5 9.6 0.00 0.00 0.00 78 999.7
20260903114504 62 157 5.2 10.4 0.00 0.00 0.00 77 999.8
20260903113604 62 164 4.3 8.7 0.00 0.00 0.00 80 999.8
20260903112704 62 157 5.2 9.6 0.00 0.00 0.00 81 999.9
20260903111804 61 160 5.2 13.0 0.00 0.00 0.00 81 999.9
20260903110904 61 164 6.1 10.4 0.00 0.00 0.00 82 999.9
20260903110004 60 167 5.2 9.6 0.00 0.00 0.00 83 1000.0
20260903105404 60 167 5.2 9.6 0.00 0.00 0.00 82 1000.0
20260903104524 60 171 5.2 10.4 0.00 0.00 0.00 82 1000.0
20260903103604 60 167 5.2 12.2 0.00 0.00 0.00 82 1000.1
20260903102725 60 166 6.1 11.3 0.00 0.00 0.00 83 1000.1
20260903101804 60 164 6.1 13.0 0.00 0.00 0.00 84 1000.2
20260903100925 60 169 5.2 13.0 0.00 0.00 0.00 85 1000.1
20260903100004 60 185 4.3 10.4 0.00 0.00 0.00 84 1000.1
20260903095404 60 175 5.2 10.4 0.00 0.00 0.00 84 1000.2
20260903094504 61 175 4.3 10.4 0.00 0.00 0.00 84 1000.1
20260903093604 61 168 6.1 12.2 0.00 0.00 0.00 83 1000.0
20260903092704 61 174 4.3 9.6 0.00 0.00 0.00 83 1000.0
20260903091804 61 167 3.5 9.6 0.00 0.00 0.00 84 1000.0
20260903090904 61 168 3.5 7.8 0.00 0.00 0.00 84 1000.0
20260903090004 61 170 4.3 7.8 0.00 0.00 0.00 85 1000.0
20260903085403 61 161 5.2 8.7 0.00 0.00 0.00 85 1000.1
20260903084525 61 166 5.2 9.6 0.00 0.00 0.00 85 1000.1
20260903083604 60 166 4.3 7.8 0.00 0.00 0.00 86 1000.1
20260903082704 60 166 6.1 11.3 0.00 0.00 0.00 85 1000.2
20260903081804 60 162 5.2 12.2 0.00 0.00 0.00 86 1000.2
20260903080903 60 160 5.2 7.8 0.00 0.00 0.00 87 1000.2
20260903080025 60 164 5.2 9.6 0.00 0.00 0.00 87 1000.2
20260903075403 60 157 6.1 11.3 0.00 0.00 0.00 88 1000.2
20260903074504 59 157 5.2 10.4 0.00 0.00 0.00 89 1000.2
20260903073604 59 163 5.2 10.4 0.00 0.00 0.00 90 1000.3
20260903072703 59 156 5.2 9.6 0.00 0.00 0.00 93 1000.3
20260903071803 58 162 4.3 9.6 0.00 0.00 0.00 97 1000.4
20260903070904 57 159 2.6 7.0 0.00 0.00 0.00 97 1000.4
20260903070004 56 165 3.5 7.8 0.00 0.00 0.00 97 1000.4
20260903065404 55 155 3.5 7.8 0.00 0.00 0.00 97 1000.5
20260903064503 54 127 2.6 5.2 0.00 0.00 0.00 97 1000.4
20260903063604 54 133 2.6 5.2 0.00 0.00 0.00 97 1000.3
20260903062703 53 116 1.7 3.5 0.00 0.00 0.00 97 1000.4
20260903061804 52 127 1.7 4.3 0.00 0.00 0.00 97 1000.4
20260903060904 51 134 1.7 3.5 0.00 0.00 0.00 97 1000.5
20260903060004 50 134 1.7 3.5 0.00 0.00 0.00 97 1000.5
20260903055403 50 154 1.7 3.5 0.00 0.00 0.00 96 1000.6
20260903054525 49 139 1.7 4.3 0.00 0.00 0.00 96 1000.7
20260903053625 48 125 0.9 2.6 0.00 0.00 0.00 97 1000.6
20260903052704 47 125 0.9 2.6 0.00 0.00 0.00 96 1000.7
20260903051804 46 125 0.9 2.6 0.00 0.00 0.00 96 1000.7
20260903050903 45 123 0.9 2.6 0.00 0.00 0.00 96 1000.8
20260903050004 45 278 0.0 2.6 0.00 0.00 0.00 96 1000.6
20260903045404 45 0 0.0 0.0 0.00 0.00 0.00 96 1000.7
20260903044504 44 0 0.0 0.0 0.00 0.00 0.00 96 1000.7
20260903043624 44 278 0.0 1.7 0.00 0.00 0.00 96 1000.8
20260903042725 44 0 0.0 0.0 0.00 0.00 0.00 95 1000.8
20260903041803 44 278 0.0 1.7 0.00 0.00 0.00 95 1000.9
20260903040904 44 0 0.0 0.0 0.00 0.00 0.00 95 1000.9